Location: Bittkow
(50.3000°N, 19.0000°E)
Time: 19:46:07
(UTC+00:00)

Cosmos 858 Rocket - Visible Passes

Search period start: 26 January 2021 00:00
Search period end: 05 February 2021 00:00
Orbit: 755 x 775 km, 74.0° (Epoch: 26 January)

Date Brightness Start Highest point End Pass type
(mag) Time Alt. Az. Time Alt. Az. Time Alt. Az.
26 Jan 6.6 03:12:44 16° SSE 03:12:44 16° SSE 03:13:41 10° SSE visible
26 Jan 5.9 16:04:42 10° SE 16:08:17 19° E 16:11:52 10° NE visible
26 Jan 4.6 17:44:23 10° SSW 17:49:41 74° WNW 17:53:12 22° NNE visible
26 Jan 7.0 19:29:16 10° W 19:32:39 17° NW 19:33:27 16° NNW visible
27 Jan 4.4 17:06:32 10° SSW 17:11:47 71° ESE 17:16:42 12° NNE visible
27 Jan 6.6 18:50:06 10° WSW 18:54:20 24° NW 18:56:58 17° N visible
28 Jan 4.9 16:29:01 10° S 16:33:59 44° ESE 16:38:59 10° NE visible
28 Jan 6.0 18:11:20 10° WSW 18:16:07 34° NW 18:20:22 13° N visible
29 Jan 5.3 17:32:53 10° SW 17:38:02 52° WNW 17:43:12 10° NNE visible
29 Jan 7.2 19:19:01 10° WNW 19:21:21 13° NW 19:23:43 10° N visible
30 Jan 4.6 16:54:45 10° SSW 17:00:03 81° WNW 17:05:22 10° NNE visible
30 Jan 7.0 18:39:23 10° W 18:42:57 18° NW 18:46:31 10° N visible
31 Jan 4.6 16:16:57 10° S 16:22:11 65° ESE 16:27:25 10° NNE visible
31 Jan 6.5 18:00:18 10° WSW 18:04:39 25° NW 18:09:01 10° N visible
01 Feb 5.9 17:21:35 10° WSW 17:26:28 37° NW 17:31:21 10° NNE visible
02 Feb 5.2 16:43:12 10° SW 16:48:23 56° WNW 16:53:36 10° NNE visible
02 Feb 7.2 18:29:02 10° WNW 18:31:39 14° NW 18:34:15 10° N visible
03 Feb 6.9 17:49:32 10° W 17:53:15 19° NW 17:56:58 10° N visible
04 Feb 6.4 17:10:31 10° WSW 17:14:59 27° NW 17:19:26 10° N visible
